| time (UTC) | temp C | wind direction | speed KPH | gust KPH | rain 1hr cm | rain 24hr cm | rain mn cm | humidity % | barometer mb |
| 20260508161728 | 12 | 271 | 4.8 | 12.9 | 0.00 | 0.00 | 0.00 | 76 | 1016.6 |
| 20260508161229 | 12 | 248 | 4.8 | 12.9 | 0.00 | 0.00 | 0.00 | 76 | 1016.7 |
| 20260508160729 | 12 | 230 | 4.8 | 12.9 | 0.00 | 0.00 | 0.00 | 77 | 1016.7 |
| 20260508160229 | 12 | 300 | 4.8 | 8.0 | 0.00 | 0.00 | 0.00 | 75 | 1016.6 |
| 20260508155955 | 12 | 226 | 4.8 | 12.9 | 0.00 | 0.00 | 0.00 | 75 | 1016.6 |
| 20260508155229 | 12 | 251 | 6.4 | 12.9 | 0.00 | 0.00 | 0.00 | 76 | 1016.7 |
| 20260508154729 | 12 | 187 | 6.4 | 17.7 | 0.00 | 0.00 | 0.00 | 76 | 1016.7 |
| 20260508154229 | 11 | 129 | 8.0 | 19.3 | 0.00 | 0.00 | 0.00 | 75 | 1016.5 |
| 20260508153729 | 11 | 189 | 6.4 | 19.3 | 0.00 | 0.00 | 0.00 | 76 | 1016.5 |
| 20260508153225 | 11 | 184 | 6.4 | 20.9 | 0.00 | 0.00 | 0.00 | 76 | 1016.5 |
| 20260508152725 | 11 | 187 | 8.0 | 20.9 | 0.00 | 0.00 | 0.00 | 76 | 1016.4 |
| 20260508152225 | 11 | 217 | 8.0 | 17.7 | 0.00 | 0.00 | 0.00 | 78 | 1016.4 |
| 20260508151723 | 11 | 188 | 6.4 | 16.1 | 0.00 | 0.00 | 0.00 | 78 | 1016.3 |
| 20260508151223 | 11 | 178 | 6.4 | 16.1 | 0.00 | 0.00 | 0.00 | 78 | 1016.2 |
| 20260508150723 | 11 | 129 | 3.2 | 12.9 | 0.00 | 0.00 | 0.00 | 79 | 1016.0 |
| 20260508150223 | 11 | 247 | 4.8 | 19.3 | 0.00 | 0.00 | 0.00 | 79 | 1016.1 |
| 20260508145722 | 11 | 143 | 6.4 | 19.3 | 0.00 | 0.00 | 0.00 | 81 | 1015.9 |
| 20260508145226 | 11 | 128 | 6.4 | 20.9 | 0.00 | 0.00 | 0.00 | 82 | 1016.0 |
| 20260508144722 | 11 | 176 | 4.8 | 20.9 | 0.00 | 0.00 | 0.00 | 82 | 1016.1 |
| 20260508144222 | 11 | 266 | 4.8 | 12.9 | 0.00 | 0.00 | 0.00 | 82 | 1016.1 |
| 20260508143221 | 11 | 307 | 3.2 | 6.4 | 0.00 | 0.00 | 0.00 | 82 | 1015.8 |
| 20260508142720 | 11 | 295 | 1.6 | 4.8 | 0.00 | 0.00 | 0.00 | 81 | 1015.8 |
| 20260508142220 | 11 | 319 | 1.6 | 4.8 | 0.00 | 0.00 | 0.00 | 81 | 1015.6 |
| 20260508141714 | 11 | 324 | 3.2 | 6.4 | 0.00 | 0.00 | 0.00 | 80 | 1015.4 |
| 20260508141210 | 12 | 14 | 3.2 | 9.7 | 0.00 | 0.00 | 0.00 | 79 | 1015.3 |
| 20260508140706 | 11 | 40 | 3.2 | 9.7 | 0.00 | 0.00 | 0.00 | 80 | 1015.3 |
| 20260508140207 | 11 | 0 | 4.8 | 17.7 | 0.00 | 0.00 | 0.00 | 79 | 1015.3 |
| 20260508135705 | 12 | 295 | 4.8 | 20.9 | 0.00 | 0.00 | 0.00 | 77 | 1015.3 |
| 20260508135203 | 12 | 120 | 4.8 | 20.9 | 0.00 | 0.00 | 0.00 | 77 | 1015.2 |
| 20260508134701 | 12 | 215 | 4.8 | 14.5 | 0.00 | 0.00 | 0.00 | 77 | 1015.1 |
| 20260508134201 | 12 | 141 | 3.2 | 14.5 | 0.00 | 0.00 | 0.00 | 77 | 1015.0 |
| 20260508133700 | 12 | 186 | 3.2 | 12.9 | 0.00 | 0.00 | 0.00 | 77 | 1015.1 |
| 20260508133202 | 12 | 249 | 4.8 | 14.5 | 0.00 | 0.00 | 0.00 | 77 | 1015.0 |
| 20260508132925 | 12 | 153 | 4.8 | 14.5 | 0.00 | 0.00 | 0.00 | 78 | 1015.1 |
| 20260508132202 | 11 | 349 | 3.2 | 8.0 | 0.00 | 0.00 | 0.00 | 79 | 1015.0 |
| 20260508131700 | 11 | 353 | 3.2 | 6.4 | 0.00 | 0.00 | 0.00 | 79 | 1015.0 |
| 20260508131203 | 11 | 353 | 3.2 | 11.3 | 0.00 | 0.00 | 0.00 | 78 | 1015.2 |
| 20260508130705 | 12 | 341 | 4.8 | 14.5 | 0.00 | 0.00 | 0.00 | 77 | 1015.1 |
| 20260508130203 | 12 | 53 | 6.4 | 14.5 | 0.00 | 0.00 | 0.00 | 76 | 1015.0 |
| 20260508125702 | 12 | 210 | 4.8 | 14.5 | 0.00 | 0.00 | 0.00 | 77 | 1015.0 |
| 20260508125205 | 12 | 353 | 4.8 | 14.5 | 0.00 | 0.00 | 0.00 | 76 | 1015.0 |
| 20260508124707 | 12 | 154 | 6.4 | 14.5 | 0.00 | 0.00 | 0.00 | 76 | 1014.9 |
| 20260508124203 | 12 | 216 | 4.8 | 14.5 | 0.00 | 0.00 | 0.00 | 76 | 1014.9 |
| 20260508123936 | 12 | 157 | 4.8 | 14.5 | 0.00 | 0.00 | 0.00 | 76 | 1015.2 |
| 20260508123153 | 12 | 103 | 4.8 | 14.5 | 0.00 | 0.00 | 0.00 | 76 | 1014.9 |
| 20260508122647 | 12 | 124 | 4.8 | 16.1 | 0.00 | 0.00 | 0.00 | 77 | 1014.9 |
| 20260508122144 | 12 | 164 | 4.8 | 16.1 | 0.00 | 0.00 | 0.00 | 77 | 1014.9 |
| 20260508121638 | 12 | 185 | 3.2 | 11.3 | 0.00 | 0.00 | 0.00 | 77 | 1014.8 |
| 20260508121127 | 12 | 100 | 3.2 | 11.3 | 0.00 | 0.00 | 0.00 | 77 | 1014.8 |
| 20260508120621 | 12 | 10 | 3.2 | 9.7 | 0.00 | 0.00 | 0.00 | 77 | 1014.9 |
| 20260508120115 | 12 | 334 | 3.2 | 16.1 | 0.00 | 0.00 | 0.00 | 77 | 1014.9 |
| 20260508115614 | 12 | 122 | 3.2 | 16.1 | 0.00 | 0.00 | 0.00 | 77 | 1014.9 |
| 20260508115111 | 12 | 112 | 4.8 | 14.5 | 0.00 | 0.00 | 0.00 | 77 | 1014.9 |
| 20260508114830 | 12 | 219 | 4.8 | 14.5 | 0.00 | 0.00 | 0.00 | 77 | 1015.0 |
| 20260508114108 | 12 | 99 | 4.8 | 17.7 | 0.00 | 0.00 | 0.00 | 77 | 1014.9 |
| 20260508113609 | 12 | 126 | 4.8 | 17.7 | 0.00 | 0.00 | 0.00 | 76 | 1015.0 |
| 20260508113109 | 12 | 171 | 4.8 | 19.3 | 0.00 | 0.00 | 0.00 | 76 | 1014.9 |
| 20260508112607 | 12 | 240 | 6.4 | 19.3 | 0.00 | 0.00 | 0.00 | 77 | 1014.7 |
| 20260508112108 | 12 | 137 | 6.4 | 17.7 | 0.00 | 0.00 | 0.00 | 76 | 1014.7 |
| 20260508111608 | 12 | 247 | 6.4 | 19.3 | 0.00 | 0.00 | 0.00 | 76 | 1014.7 |
| 20260508111107 | 12 | 237 | 6.4 | 24.1 | 0.00 | 0.00 | 0.00 | 76 | 1014.7 |
| 20260508110608 | 12 | 174 | 6.4 | 24.1 | 0.00 | 0.00 | 0.00 | 76 | 1014.7 |
| 20260508110108 | 12 | 220 | 4.8 | 12.9 | 0.00 | 0.00 | 0.00 | 76 | 1014.7 |
| 20260508105608 | 13 | 139 | 4.8 | 12.9 | 0.00 | 0.00 | 0.00 | 76 | 1014.6 |
| 20260508105106 | 13 | 261 | 4.8 | 11.3 | 0.00 | 0.00 | 0.00 | 75 | 1014.6 |
| 20260508104839 | 13 | 148 | 4.8 | 16.1 | 0.00 | 0.00 | 0.00 | 75 | 1014.6 |
| 20260508104102 | 13 | 75 | 6.4 | 16.1 | 0.00 | 0.00 | 0.00 | 75 | 1014.6 |
| 20260508103601 | 13 | 165 | 6.4 | 19.3 | 0.00 | 0.00 | 0.00 | 74 | 1014.7 |
| 20260508103102 | 13 | 118 | 6.4 | 19.3 | 0.00 | 0.00 | 0.00 | 75 | 1014.6 |
| 20260508102558 | 13 | 51 | 6.4 | 17.7 | 0.00 | 0.00 | 0.00 | 75 | 1014.6 |
| 20260508102052 | 13 | 107 | 8.0 | 19.3 | 0.00 | 0.00 | 0.00 | 74 | 1014.6 |
| 20260508101546 | 13 | 149 | 6.4 | 19.3 | 0.00 | 0.00 | 0.00 | 74 | 1014.7 |
| 20260508101040 | 13 | 166 | 8.0 | 24.1 | 0.00 | 0.00 | 0.00 | 74 | 1014.7 |
| 20260508100538 | 13 | 95 | 8.0 | 24.1 | 0.00 | 0.00 | 0.00 | 74 | 1014.7 |
| 20260508100312 | 13 | 119 | 8.0 | 19.3 | 0.00 | 0.00 | 0.00 | 74 | 1014.7 |
| 20260508095538 | 13 | 214 | 9.7 | 22.5 | 0.00 | 0.00 | 0.00 | 74 | 1014.8 |
| 20260508095037 | 13 | 120 | 8.0 | 22.5 | 0.00 | 0.00 | 0.00 | 74 | 1014.7 |
| 20260508094538 | 13 | 128 | 6.4 | 17.7 | 0.00 | 0.00 | 0.00 | 74 | 1014.7 |
| 20260508094038 | 13 | 47 | 8.0 | 16.1 | 0.00 | 0.00 | 0.00 | 74 | 1014.6 |
| 20260508093539 | 13 | 106 | 6.4 | 16.1 | 0.00 | 0.00 | 0.00 | 74 | 1014.6 |
| 20260508093038 | 13 | 187 | 8.0 | 20.9 | 0.00 | 0.00 | 0.00 | 74 | 1014.6 |
| 20260508092537 | 13 | 150 | 9.7 | 22.5 | 0.00 | 0.00 | 0.00 | 73 | 1014.5 |
| 20260508092037 | 13 | 99 | 9.7 | 22.5 | 0.00 | 0.00 | 0.00 | 74 | 1014.7 |
| 20260508091538 | 13 | 169 | 8.0 | 19.3 | 0.00 | 0.00 | 0.00 | 74 | 1014.6 |
| 20260508091034 | 13 | 204 | 8.0 | 19.3 | 0.00 | 0.00 | 0.00 | 74 | 1014.6 |
| 20260508090534 | 13 | 212 | 8.0 | 19.3 | 0.00 | 0.00 | 0.00 | 74 | 1014.5 |
| 20260508090034 | 13 | 116 | 8.0 | 19.3 | 0.00 | 0.00 | 0.00 | 74 | 1014.5 |
| 20260508085534 | 13 | 197 | 8.0 | 19.3 | 0.00 | 0.00 | 0.00 | 74 | 1014.5 |
| 20260508085035 | 13 | 214 | 6.4 | 20.9 | 0.00 | 0.00 | 0.00 | 74 | 1014.5 |
| 20260508084810 | 13 | 199 | 6.4 | 20.9 | 0.00 | 0.00 | 0.00 | 74 | 1014.5 |
| 20260508084038 | 13 | 135 | 6.4 | 20.9 | 0.00 | 0.00 | 0.00 | 73 | 1014.6 |
| 20260508083808 | 13 | 103 | 8.0 | 20.9 | 0.00 | 0.00 | 0.00 | 73 | 1014.6 |
| 20260508083039 | 13 | 157 | 8.0 | 20.9 | 0.00 | 0.00 | 0.00 | 74 | 1014.5 |
| 20260508082534 | 13 | 191 | 8.0 | 20.9 | 0.00 | 0.00 | 0.00 | 74 | 1014.6 |
| 20260508082029 | 13 | 159 | 9.7 | 22.5 | 0.00 | 0.00 | 0.00 | 74 | 1014.6 |
| 20260508081535 | 13 | 184 | 8.0 | 22.5 | 0.00 | 0.00 | 0.00 | 74 | 1014.6 |
| 20260508081029 | 13 | 128 | 6.4 | 22.5 | 0.00 | 0.00 | 0.00 | 74 | 1014.6 |
| 20260508080531 | 13 | 156 | 4.8 | 17.7 | 0.00 | 0.00 | 0.00 | 74 | 1014.7 |
| 20260508080031 | 13 | 131 | 6.4 | 17.7 | 0.00 | 0.00 | 0.00 | 73 | 1014.7 |
| 20260508075531 | 13 | 107 | 8.0 | 16.1 | 0.00 | 0.00 | 0.00 | 73 | 1014.6 |
| 20260508075029 | 13 | 129 | 6.4 | 16.1 | 0.00 | 0.00 | 0.00 | 73 | 1014.7 |
| 20260508074530 | 13 | 187 | 3.2 | 11.3 | 0.00 | 0.00 | 0.00 | 74 | 1014.7 |
| 20260508074029 | 13 | 301 | 3.2 | 11.3 | 0.00 | 0.00 | 0.00 | 73 | 1014.8 |
| 20260508073529 | 13 | 199 | 4.8 | 11.3 | 0.00 | 0.00 | 0.00 | 74 | 1014.8 |
| 20260508073029 | 13 | 94 | 6.4 | 16.1 | 0.00 | 0.00 | 0.00 | 73 | 1014.8 |
| 20260508072523 | 13 | 111 | 4.8 | 16.1 | 0.00 | 0.00 | 0.00 | 74 | 1014.9 |
| 20260508072016 | 13 | 132 | 3.2 | 14.5 | 0.00 | 0.00 | 0.00 | 75 | 1015.0 |
| 20260508071513 | 13 | 102 | 3.2 | 14.5 | 0.00 | 0.00 | 0.00 | 75 | 1015.0 |
| 20260508071247 | 13 | 245 | 3.2 | 11.3 | 0.00 | 0.00 | 0.00 | 76 | 1015.1 |
| 20260508070512 | 12 | 299 | 3.2 | 11.3 | 0.00 | 0.00 | 0.00 | 76 | 1014.9 |
| 20260508070011 | 12 | 72 | 0.0 | 6.4 | 0.00 | 0.00 | 0.00 | 77 | 1014.9 |
| 20260508065511 | 12 | 103 | 1.6 | 4.8 | 0.00 | 0.00 | 0.00 | 76 | 1015.1 |
| 20260508065012 | 13 | 103 | 1.6 | 6.4 | 0.00 | 0.00 | 0.00 | 75 | 1015.0 |
| 20260508064512 | 13 | 326 | 3.2 | 14.5 | 0.00 | 0.00 | 0.00 | 74 | 1015.0 |
| 20260508064012 | 13 | 202 | 4.8 | 14.5 | 0.00 | 0.00 | 0.00 | 74 | 1015.0 |
| 20260508063511 | 13 | 157 | 3.2 | 14.5 | 0.00 | 0.00 | 0.00 | 74 | 1015.0 |
| 20260508063011 | 13 | 222 | 3.2 | 17.7 | 0.00 | 0.00 | 0.00 | 74 | 1015.1 |
| 20260508062511 | 13 | 122 | 3.2 | 17.7 | 0.00 | 0.00 | 0.00 | 74 | 1015.0 |
| 20260508062011 | 13 | 210 | 3.2 | 12.9 | 0.00 | 0.00 | 0.00 | 75 | 1015.1 |
| 20260508061511 | 13 | 32 | 3.2 | 8.0 | 0.00 | 0.00 | 0.00 | 75 | 1015.2 |
| 20260508061011 | 13 | 309 | 3.2 | 8.0 | 0.00 | 0.00 | 0.00 | 74 | 1015.2 |
| 20260508060510 | 13 | 231 | 3.2 | 9.7 | 0.00 | 0.00 | 0.00 | 75 | 1015.2 |
| 20260508060012 | 13 | 112 | 3.2 | 9.7 | 0.00 | 0.00 | 0.00 | 75 | 1015.2 |
| 20260508055510 | 13 | 38 | 3.2 | 14.5 | 0.00 | 0.00 | 0.00 | 75 | 1015.2 |
| 20260508055008 | 13 | 182 | 4.8 | 22.5 | 0.00 | 0.00 | 0.00 | 75 | 1015.2 |
| 20260508054512 | 13 | 223 | 8.0 | 22.5 | 0.00 | 0.00 | 0.00 | 74 | 1015.2 |
| 20260508054009 | 13 | 214 | 8.0 | 22.5 | 0.00 | 0.00 | 0.00 | 75 | 1015.2 |
| 20260508053507 | 13 | 158 | 6.4 | 22.5 | 0.00 | 0.00 | 0.00 | 75 | 1015.2 |
| 20260508053006 | 13 | 160 | 8.0 | 17.7 | 0.00 | 0.00 | 0.00 | 75 | 1015.2 |
| 20260508052735 | 13 | 222 | 8.0 | 19.3 | 0.00 | 0.00 | 0.00 | 74 | 1015.1 |
| 20260508052232 | 13 | 177 | 8.0 | 20.9 | 0.00 | 0.00 | 0.00 | 74 | 1015.1 |
| 20260508051502 | 13 | 162 | 11.3 | 24.1 | 0.00 | 0.00 | 0.00 | 74 | 1015.1 |
| 20260508051000 | 13 | 112 | 12.9 | 24.1 | 0.00 | 0.00 | 0.00 | 74 | 1015.1 |
| 20260508050501 | 13 | 123 | 14.5 | 29.0 | 0.00 | 0.00 | 0.00 | 73 | 1015.2 |
| 20260508050001 | 13 | 164 | 14.5 | 29.0 | 0.00 | 0.00 | 0.00 | 74 | 1015.1 |
| 20260508045501 | 13 | 137 | 12.9 | 27.4 | 0.00 | 0.00 | 0.00 | 74 | 1015.2 |
| 20260508045001 | 13 | 170 | 11.3 | 27.4 | 0.00 | 0.00 | 0.00 | 73 | 1015.1 |
| 20260508044507 | 13 | 156 | 12.9 | 22.5 | 0.00 | 0.00 | 0.00 | 73 | 1015.1 |
| 20260508044003 | 13 | 138 | 12.9 | 22.5 | 0.00 | 0.00 | 0.00 | 73 | 1015.3 |
| 20260508043002 | 13 | 141 | 14.5 | 27.4 | 0.00 | 0.00 | 0.00 | 73 | 1015.4 |
| 20260508042504 | 13 | 116 | 12.9 | 27.4 | 0.00 | 0.00 | 0.00 | 73 | 1015.4 |
| 20260508041502 | 13 | 170 | 12.9 | 20.9 | 0.00 | 0.00 | 0.00 | 73 | 1015.5 |
| 20260508041001 | 13 | 145 | 12.9 | 20.9 | 0.00 | 0.00 | 0.00 | 73 | 1015.6 |
| 20260508040501 | 13 | 128 | 12.9 | 24.1 | 0.00 | 0.00 | 0.00 | 73 | 1015.5 |
| 20260508040001 | 13 | 151 | 12.9 | 24.1 | 0.00 | 0.00 | 0.00 | 73 | 1015.5 |
| 20260508035501 | 13 | 159 | 12.9 | 20.9 | 0.00 | 0.00 | 0.00 | 73 | 1015.5 |
| 20260508035001 | 13 | 159 | 12.9 | 22.5 | 0.00 | 0.00 | 0.00 | 72 | 1015.5 |
| 20260508034502 | 13 | 127 | 12.9 | 22.5 | 0.00 | 0.00 | 0.00 | 72 | 1015.5 |
| 20260508033456 | 13 | 127 | 11.3 | 22.5 | 0.00 | 0.00 | 0.00 | 72 | 1015.4 |
| 20260508032950 | 13 | 145 | 9.7 | 22.5 | 0.00 | 0.00 | 0.00 | 72 | 1015.4 |
| 20260508032444 | 13 | 136 | 9.7 | 20.9 | 0.00 | 0.00 | 0.00 | 72 | 1015.4 |
| 20260508031938 | 13 | 176 | 9.7 | 20.9 | 0.00 | 0.00 | 0.00 | 72 | 1015.4 |
| 20260508031433 | 13 | 159 | 11.3 | 19.3 | 0.00 | 0.00 | 0.00 | 72 | 1015.5 |
| 20260508031207 | 13 | 116 | 11.3 | 19.3 | 0.00 | 0.00 | 0.00 | 72 | 1015.5 |
| 20260508030430 | 13 | 147 | 8.0 | 17.7 | 0.00 | 0.00 | 0.00 | 71 | 1015.6 |
| 20260508025931 | 14 | 97 | 8.0 | 20.9 | 0.00 | 0.00 | 0.00 | 71 | 1015.5 |
| 20260508025428 | 14 | 172 | 6.4 | 20.9 | 0.00 | 0.00 | 0.00 | 70 | 1015.6 |
| 20260508024930 | 14 | 139 | 6.4 | 17.7 | 0.00 | 0.00 | 0.00 | 70 | 1015.5 |
| 20260508024700 | 15 | 101 | 4.8 | 17.7 | 0.00 | 0.00 | 0.00 | 70 | 1015.5 |
| 20260508023929 | 15 | 276 | 4.8 | 16.1 | 0.00 | 0.00 | 0.00 | 69 | 1015.6 |
| 20260508023705 | 15 | 213 | 6.4 | 16.1 | 0.00 | 0.00 | 0.00 | 68 | 1015.7 |
| 20260508022931 | 15 | 302 | 6.4 | 16.1 | 0.00 | 0.00 | 0.00 | 68 | 1015.8 |
| 20260508022431 | 15 | 229 | 8.0 | 20.9 | 0.00 | 0.00 | 0.00 | 67 | 1015.8 |
| 20260508021930 | 15 | 258 | 8.0 | 20.9 | 0.00 | 0.00 | 0.00 | 66 | 1015.8 |
| 20260508021429 | 15 | 209 | 6.4 | 19.3 | 0.00 | 0.00 | 0.00 | 67 | 1015.7 |
| 20260508020930 | 15 | 216 | 6.4 | 19.3 | 0.00 | 0.00 | 0.00 | 67 | 1015.7 |
| 20260508020429 | 15 | 180 | 9.7 | 20.9 | 0.00 | 0.00 | 0.00 | 67 | 1015.7 |
| 20260508015929 | 15 | 252 | 9.7 | 20.9 | 0.00 | 0.00 | 0.00 | 66 | 1015.8 |
| 20260508015428 | 16 | 216 | 8.0 | 19.3 | 0.00 | 0.00 | 0.00 | 65 | 1015.9 |
| 20260508014940 | 16 | 239 | 8.0 | 19.3 | 0.00 | 0.00 | 0.00 | 66 | 1015.9 |
| 20260508014439 | 16 | 226 | 8.0 | 19.3 | 0.00 | 0.00 | 0.00 | 65 | 1016.0 |
| 20260508013930 | 16 | 281 | 6.4 | 14.5 | 0.00 | 0.00 | 0.00 | 64 | 1016.0 |
| 20260508013423 | 16 | 247 | 6.4 | 16.1 | 0.00 | 0.00 | 0.00 | 67 | 1016.0 |
| 20260508012916 | 17 | 234 | 6.4 | 16.1 | 0.00 | 0.00 | 0.00 | 63 | 1016.0 |
| 20260508012414 | 17 | 304 | 3.2 | 8.0 | 0.00 | 0.00 | 0.00 | 67 | 1016.1 |
| 20260508012142 | 17 | 285 | 3.2 | 6.4 | 0.00 | 0.00 | 0.00 | 65 | 1016.1 |
| 20260508011414 | 17 | 355 | 1.6 | 6.4 | 0.00 | 0.00 | 0.00 | 66 | 1016.2 |
| 20260508011142 | 17 | 167 | 3.2 | 14.5 | 0.00 | 0.00 | 0.00 | 68 | 1016.2 |
| 20260508010413 | 16 | 137 | 4.8 | 14.5 | 0.00 | 0.00 | 0.00 | 68 | 1016.3 |
| 20260508005912 | 16 | 232 | 4.8 | 12.9 | 0.00 | 0.00 | 0.00 | 69 | 1016.3 |
| 20260508005412 | 16 | 242 | 4.8 | 12.9 | 0.00 | 0.00 | 0.00 | 69 | 1016.4 |
| 20260508004912 | 16 | 190 | 4.8 | 12.9 | 0.00 | 0.00 | 0.00 | 71 | 1016.4 |
| 20260508004412 | 15 | 249 | 4.8 | 11.3 | 0.00 | 0.00 | 0.00 | 71 | 1016.5 |
| 20260508003911 | 16 | 314 | 3.2 | 8.0 | 0.00 | 0.00 | 0.00 | 70 | 1016.5 |
| 20260508003411 | 16 | 314 | 3.2 | 6.4 | 0.00 | 0.00 | 0.00 | 72 | 1016.5 |
| 20260508002912 | 16 | 295 | 3.2 | 6.4 | 0.00 | 0.00 | 0.00 | 71 | 1016.5 |
| 20260508002409 | 15 | 177 | 4.8 | 11.3 | 0.00 | 0.00 | 0.00 | 71 | 1016.6 |
| 20260508001910 | 15 | 312 | 4.8 | 11.3 | 0.00 | 0.00 | 0.00 | 72 | 1016.7 |
| 20260508001635 | 15 | 228 | 4.8 | 9.7 | 0.00 | 0.00 | 0.00 | 71 | 1016.7 |
| 20260508000908 | 15 | 302 | 4.8 | 9.7 | 0.00 | 0.00 | 0.00 | 69 | 1016.7 |
| 20260508000408 | 16 | 247 | 4.8 | 9.7 | 0.00 | 0.00 | 0.00 | 69 | 1016.7 |
| 20260507235907 | 16 | 250 | 6.4 | 9.7 | 0.00 | 0.00 | 0.00 | 70 | 1016.7 |
| 20260507235408 | 16 | 253 | 4.8 | 9.7 | 0.00 | 0.00 | 0.00 | 70 | 1016.6 |
| 20260507234908 | 16 | 285 | 4.8 | 8.0 | 0.00 | 0.00 | 0.00 | 70 | 1016.6 |
| 20260507234409 | 15 | 270 | 4.8 | 11.3 | 0.00 | 0.00 | 0.00 | 72 | 1016.6 |
| 20260507234137 | 15 | 285 | 4.8 | 11.3 | 0.00 | 0.00 | 0.00 | 72 | 1016.6 |
| 20260507233404 | 15 | 263 | 4.8 | 9.7 | 0.00 | 0.00 | 0.00 | 73 | 1016.7 |
| 20260507232903 | 15 | 239 | 6.4 | 12.9 | 0.00 | 0.00 | 0.00 | 71 | 1016.7 |
| 20260507232404 | 15 | 201 | 4.8 | 12.9 | 0.00 | 0.00 | 0.00 | 70 | 1016.7 |
| 20260507232127 | 15 | 241 | 4.8 | 9.7 | 0.00 | 0.00 | 0.00 | 71 | 1016.7 |
| 20260507231404 | 16 | 253 | 4.8 | 9.7 | 0.00 | 0.00 | 0.00 | 69 | 1016.8 |
| 20260507230904 | 16 | 205 | 4.8 | 11.3 | 0.00 | 0.00 | 0.00 | 70 | 1016.9 |
| 20260507230404 | 16 | 318 | 4.8 | 11.3 | 0.00 | 0.00 | 0.00 | 72 | 1017.0 |
| 20260507225905 | 16 | 312 | 4.8 | 9.7 | 0.00 | 0.00 | 0.00 | 73 | 1017.0 |
| 20260507225402 | 16 | 232 | 6.4 | 12.9 | 0.00 | 0.00 | 0.00 | 71 | 1017.1 |
| 20260507224859 | 15 | 262 | 6.4 | 12.9 | 0.00 | 0.00 | 0.00 | 72 | 1017.2 |
| 20260507224625 | 16 | 204 | 6.4 | 11.3 | 0.00 | 0.00 | 0.00 | 70 | 1017.0 |
| 20260507223858 | 16 | 274 | 4.8 | 11.3 | 0.00 | 0.00 | 0.00 | 71 | 1017.2 |
| 20260507223354 | 16 | 272 | 4.8 | 12.9 | 0.00 | 0.00 | 0.00 | 68 | 1017.3 |
| 20260507222854 | 16 | 261 | 6.4 | 12.9 | 0.00 | 0.00 | 0.00 | 72 | 1017.3 |
| 20260507222355 | 16 | 295 | 6.4 | 12.9 | 0.00 | 0.00 | 0.00 | 73 | 1017.4 |
| 20260507221854 | 16 | 285 | 6.4 | 12.9 | 0.00 | 0.00 | 0.00 | 71 | 1017.4 |
| 20260507221351 | 16 | 303 | 6.4 | 12.9 | 0.00 | 0.00 | 0.00 | 72 | 1017.4 |
| 20260507220852 | 16 | 207 | 4.8 | 12.9 | 0.00 | 0.00 | 0.00 | 68 | 1017.6 |
| 20260507220352 | 17 | 300 | 4.8 | 12.9 | 0.00 | 0.00 | 0.00 | 69 | 1017.7 |
| 20260507215852 | 15 | 247 | 4.8 | 14.5 | 0.00 | 0.00 | 0.00 | 75 | 1017.8 |
| 20260507214849 | 16 | 295 | 6.4 | 12.9 | 0.00 | 0.00 | 0.00 | 71 | 1017.9 |
| 20260507214350 | 16 | 328 | 6.4 | 14.5 | 0.00 | 0.00 | 0.00 | 70 | 1017.9 |
| 20260507213849 | 17 | 248 | 6.4 | 14.5 | 0.00 | 0.00 | 0.00 | 71 | 1017.9 |
| 20260507213347 | 16 | 285 | 6.4 | 12.9 | 0.00 | 0.00 | 0.00 | 69 | 1017.9 |
| 20260507212845 | 15 | 232 | 6.4 | 12.9 | 0.00 | 0.00 | 0.00 | 72 | 1018.0 |
| 20260507212345 | 15 | 270 | 6.4 | 12.9 | 0.00 | 0.00 | 0.00 | 74 | 1018.0 |
| 20260507211842 | 15 | 276 | 6.4 | 14.5 | 0.00 | 0.00 | 0.00 | 74 | 1018.0 |
| 20260507211342 | 15 | 285 | 6.4 | 14.5 | 0.00 | 0.00 | 0.00 | 75 | 1018.0 |
| 20260507210835 | 15 | 239 | 4.8 | 8.0 | 0.00 | 0.00 | 0.00 | 77 | 1018.1 |
| 20260507210337 | 15 | 272 | 4.8 | 9.7 | 0.00 | 0.00 | 0.00 | 78 | 1018.1 |
| 20260507205835 | 14 | 230 | 4.8 | 12.9 | 0.00 | 0.00 | 0.00 | 80 | 1018.2 |
| 20260507205336 | 14 | 247 | 4.8 | 12.9 | 0.00 | 0.00 | 0.00 | 78 | 1018.2 |
| 20260507205105 | 15 | 235 | 6.4 | 12.9 | 0.00 | 0.00 | 0.00 | 75 | 1018.2 |
| 20260507204334 | 15 | 322 | 6.4 | 12.9 | 0.00 | 0.00 | 0.00 | 75 | 1018.4 |
| 20260507203837 | 16 | 339 | 4.8 | 12.9 | 0.00 | 0.00 | 0.00 | 78 | 1018.5 |
| 20260507203603 | 15 | 243 | 6.4 | 12.9 | 0.00 | 0.00 | 0.00 | 77 | 1018.4 |
| 20260507202831 | 15 | 320 | 4.8 | 11.3 | 0.00 | 0.00 | 0.00 | 78 | 1018.5 |
| 20260507202551 | 14 | 285 | 3.2 | 8.0 | 0.00 | 0.00 | 0.00 | 79 | 1018.6 |
| 20260507202332 | 14 | 285 | 3.2 | 8.0 | 0.00 | 0.00 | 0.00 | 79 | 1018.6 |
| 20260507201832 | 13 | 337 | 3.2 | 11.3 | 0.00 | 0.00 | 0.00 | 80 | 1018.6 |
| 20260507201329 | 14 | 330 | 4.8 | 11.3 | 0.00 | 0.00 | 0.00 | 76 | 1018.7 |
| 20260507200830 | 15 | 343 | 4.8 | 8.0 | 0.00 | 0.00 | 0.00 | 77 | 1018.7 |
| 20260507200329 | 14 | 314 | 4.8 | 8.0 | 0.00 | 0.00 | 0.00 | 81 | 1018.7 |
| 20260507195830 | 13 | 311 | 3.2 | 8.0 | 0.00 | 0.00 | 0.00 | 79 | 1018.7 |
| 20260507195329 | 14 | 318 | 3.2 | 8.0 | 0.00 | 0.00 | 0.00 | 79 | 1018.7 |
| 20260507195100 | 14 | 333 | 3.2 | 8.0 | 0.00 | 0.00 | 0.00 | 80 | 1018.8 |
| 20260507193832 | 13 | 323 | 3.2 | 8.0 | 0.00 | 0.00 | 0.00 | 81 | 1018.8 |
| 20260507193323 | 13 | 306 | 3.2 | 8.0 | 0.00 | 0.00 | 0.00 | 81 | 1018.8 |
| 20260507192823 | 13 | 354 | 4.8 | 11.3 | 0.00 | 0.00 | 0.00 | 82 | 1018.9 |
| 20260507192321 | 13 | 336 | 4.8 | 12.9 | 0.00 | 0.00 | 0.00 | 83 | 1019.0 |
| 20260507191819 | 13 | 301 | 4.8 | 12.9 | 0.00 | 0.00 | 0.00 | 82 | 1019.0 |
| 20260507191323 | 13 | 309 | 3.2 | 11.3 | 0.00 | 0.00 | 0.00 | 81 | 1019.0 |
| 20260507190820 | 13 | 307 | 3.2 | 11.3 | 0.00 | 0.00 | 0.00 | 81 | 1019.0 |
| 20260507190317 | 13 | 314 | 1.6 | 8.0 | 0.00 | 0.00 | 0.00 | 83 | 1019.0 |
| 20260507185815 | 12 | 8 | 1.6 | 4.8 | 0.00 | 0.00 | 0.00 | 84 | 1019.2 |
| 20260507185315 | 12 | 107 | 1.6 | 4.8 | 0.00 | 0.00 | 0.00 | 84 | 1019.2 |
| 20260507184815 | 12 | 103 | 1.6 | 4.8 | 0.00 | 0.00 | 0.00 | 84 | 1019.2 |
| 20260507184314 | 12 | 310 | 3.2 | 9.7 | 0.00 | 0.00 | 0.00 | 84 | 1019.2 |
| 20260507183813 | 12 | 308 | 4.8 | 9.7 | 0.00 | 0.00 | 0.00 | 84 | 1019.3 |
| 20260507183314 | 12 | 304 | 3.2 | 8.0 | 0.00 | 0.00 | 0.00 | 84 | 1019.3 |
| 20260507183035 | 12 | 328 | 3.2 | 6.4 | 0.00 | 0.00 | 0.00 | 84 | 1019.3 |
| 20260507182313 | 12 | 316 | 3.2 | 6.4 | 0.00 | 0.00 | 0.00 | 84 | 1019.3 |
| 20260507181811 | 12 | 328 | 3.2 | 6.4 | 0.00 | 0.00 | 0.00 | 84 | 1019.3 |
| 20260507181308 | 12 | 319 | 3.2 | 6.4 | 0.00 | 0.00 | 0.00 | 85 | 1019.4 |
| 20260507180809 | 12 | 309 | 3.2 | 6.4 | 0.00 | 0.00 | 0.00 | 84 | 1019.4 |
| 20260507180310 | 12 | 285 | 4.8 | 8.0 | 0.00 | 0.00 | 0.00 | 84 | 1019.4 |
| 20260507175809 | 12 | 295 | 3.2 | 8.0 | 0.00 | 0.00 | 0.00 | 85 | 1019.4 |
| 20260507175042 | 12 | 332 | 3.2 | 6.4 | 0.00 | 0.00 | 0.00 | 84 | 1019.4 |
| 20260507174310 | 12 | 295 | 3.2 | 6.4 | 0.00 | 0.00 | 0.00 | 85 | 1019.4 |
| 20260507173809 | 12 | 319 | 3.2 | 6.4 | 0.00 | 0.00 | 0.00 | 84 | 1019.5 |
| 20260507173307 | 12 | 327 | 3.2 | 8.0 | 0.00 | 0.00 | 0.00 | 85 | 1019.4 |
| 20260507173040 | 12 | 310 | 3.2 | 8.0 | 0.00 | 0.00 | 0.00 | 84 | 1019.4 |
| 20260507172537 | 12 | 311 | 3.2 | 6.4 | 0.00 | 0.00 | 0.00 | 85 | 1019.2 |
| 20260507171305 | 12 | 305 | 3.2 | 6.4 | 0.00 | 0.00 | 0.00 | 85 | 1019.2 |
| 20260507170804 | 11 | 236 | 3.2 | 6.4 | 0.00 | 0.00 | 0.00 | 84 | 1019.2 |
| 20260507170305 | 12 | 295 | 3.2 | 4.8 | 0.00 | 0.00 | 0.00 | 84 | 1019.1 |
| 20260507165804 | 12 | 300 | 3.2 | 6.4 | 0.00 | 0.00 | 0.00 | 85 | 1019.2 |
| 20260507165306 | 12 | 316 | 3.2 | 6.4 | 0.00 | 0.00 | 0.00 | 84 | 1019.1 |
| 20260507164803 | 12 | 310 | 1.6 | 6.4 | 0.00 | 0.00 | 0.00 | 84 | 1019.2 |
| 20260507164303 | 12 | 290 | 1.6 | 4.8 | 0.00 | 0.00 | 0.00 | 85 | 1019.1 |
| 20260507163804 | 11 | 232 | 1.6 | 4.8 | 0.00 | 0.00 | 0.00 | 85 | 1019.2 |
| 20260507163534 | 11 | 214 | 1.6 | 3.2 | 0.00 | 0.00 | 0.00 | 85 | 1019.1 |
| 20260507162802 | 11 | 224 | 1.6 | 4.8 | 0.00 | 0.00 | 0.00 | 85 | 1019.1 |
| 20260507162306 | 11 | 224 | 1.6 | 4.8 | 0.00 | 0.00 | 0.00 | 84 | 1019.3 |